EW3904 Weather Reports


Display with metric or nautical units.
time (UTC)temp
F
wind
direction
speed
MPH
gust
MPH
rain 1hr
in
rain 24hr
in
rain mn
in
humidity
%
barometer
mb
20260506051233 62 216 0.0 0.0 0.00 0.00 0.00 70 1013.8
20260506050233 63 216 0.0 2.0 0.00 0.00 0.00 66 1014.1
20260506044233 63 194 0.0 2.0 0.00 0.00 0.00 68 1013.8
20260506043233 64 207 0.0 2.0 0.00 0.00 0.00 65 1013.9
20260506042232 62 179 0.0 0.0 0.00 0.00 0.00 70 1013.7
20260506041233 62 179 0.0 2.0 0.00 0.00 0.00 71 1013.7
20260506040233 62 200 0.0 2.0 0.00 0.00 0.00 72 1014.2
20260506035233 63 241 0.0 2.0 0.00 0.00 0.00 67 1014.2
20260506034232 63 241 0.0 0.0 0.00 0.00 0.00 67 1014.4
20260506033232 64 241 0.0 2.0 0.00 0.00 0.00 65 1014.2
20260506032232 64 241 1.0 2.0 0.00 0.00 0.00 66 1014.1
20260506031232 63 177 0.0 0.0 0.00 0.00 0.00 68 1013.7
20260506030232 64 177 0.0 2.0 0.00 0.00 0.00 67 1013.9
20260506025233 65 177 0.0 1.0 0.00 0.00 0.00 64 1014.0
20260506023232 65 178 0.0 2.0 0.00 0.00 0.00 63 1014.3
20260506021232 64 167 0.0 3.0 0.00 0.00 0.00 65 1013.9
20260506020232 65 167 0.0 3.0 0.00 0.00 0.00 63 1013.9
20260506015231 66 178 0.0 1.0 0.00 0.00 0.00 59 1013.8
20260506014231 67 215 2.0 2.0 0.00 0.00 0.00 59 1013.9
20260506013231 67 238 0.0 1.0 0.00 0.00 0.00 58 1013.8
20260506012231 68 155 0.0 0.0 0.00 0.00 0.00 57 1013.6
20260506011231 70 133 1.0 1.0 0.00 0.00 0.00 54 1013.5
20260506010231 70 184 0.0 1.0 0.00 0.00 0.00 51 1013.6
20260506005231 71 221 0.0 2.0 0.00 0.00 0.00 50 1013.8
20260506004231 71 198 1.0 2.0 0.00 0.00 0.00 51 1013.6
20260506003231 72 186 1.0 3.0 0.00 0.00 0.00 49 1013.6
20260506002231 73 192 1.0 3.0 0.00 0.00 0.00 47 1013.6
20260506001231 73 210 0.0 2.0 0.00 0.00 0.00 46 1013.7
20260506000231 75 175 0.0 3.0 0.00 0.00 0.00 43 1013.7
20260505235231 75 202 2.0 4.0 0.00 0.00 0.00 42 1013.7
20260505234231 76 201 2.0 5.0 0.00 0.00 0.00 41 1013.5
20260505233231 77 193 1.0 8.0 0.00 0.00 0.00 40 1013.5
20260505232231 78 232 2.0 5.0 0.00 0.00 0.00 39 1013.3
20260505231231 78 194 2.0 8.0 0.00 0.00 0.00 38 1013.3
20260505230231 78 212 2.0 8.0 0.00 0.00 0.00 37 1013.3
20260505225231 79 171 8.0 10.0 0.00 0.00 0.00 35 1013.1
20260505223230 79 178 2.0 8.0 0.00 0.00 0.00 38 1013.1
20260505222230 79 117 5.0 10.0 0.00 0.00 0.00 37 1013.1
20260505221230 79 202 5.0 13.0 0.00 0.00 0.00 37 1013.0
20260505220230 80 205 3.0 10.0 0.00 0.00 0.00 36 1013.1
20260505215230 80 214 8.0 10.0 0.00 0.00 0.00 35 1013.1
20260505214230 80 182 6.0 7.0 0.00 0.00 0.00 36 1013.1
20260505213230 80 192 4.0 11.0 0.00 0.00 0.00 36 1013.1
20260505212230 80 198 8.0 10.0 0.00 0.00 0.00 36 1013.2
20260505211230 80 197 7.0 11.0 0.00 0.00 0.00 38 1013.3
20260505210230 80 226 4.0 10.0 0.00 0.00 0.00 40 1013.3
20260505205230 80 187 6.0 14.0 0.00 0.00 0.00 40 1013.4
20260505204230 79 205 4.0 10.0 0.00 0.00 0.00 42 1013.7
20260505203230 80 275 2.0 10.0 0.00 0.00 0.00 41 1013.6
20260505202230 79 209 3.0 5.0 0.00 0.00 0.00 43 1013.6
20260505200229 80 209 5.0 10.0 0.00 0.00 0.00 42 1013.8
20260505195229 79 189 3.0 11.0 0.00 0.00 0.00 41 1013.9
20260505194229 78 267 2.0 10.0 0.00 0.00 0.00 41 1014.1
20260505193229 79 166 6.0 10.0 0.00 0.00 0.00 41 1014.2
20260505191229 78 239 4.0 7.0 0.00 0.00 0.00 43 1014.7
20260505190229 78 203 4.0 9.0 0.00 0.00 0.00 40 1014.8
20260505184229 77 137 4.0 15.0 0.00 0.00 0.00 45 1014.8
20260505183229 76 113 4.0 10.0 0.00 0.00 0.00 44 1015.0
20260505181228 77 265 5.0 5.0 0.00 0.00 0.00 46 1015.6
20260505180229 77 246 4.0 10.0 0.00 0.00 0.00 44 1015.9
20260505175228 76 213 4.0 10.0 0.00 0.00 0.00 44 1016.0
20260505174228 76 156 3.0 10.0 0.00 0.00 0.00 43 1015.9
20260505173228 76 167 9.0 14.0 0.00 0.00 0.00 44 1016.1
20260505172228 76 141 3.0 9.0 0.00 0.00 0.00 50 1016.0
20260505171228 75 231 6.0 10.0 0.00 0.00 0.00 49 1016.1
20260505170228 74 161 5.0 10.0 0.00 0.00 0.00 50 1016.0
20260505165228 74 180 4.0 9.0 0.00 0.00 0.00 52 1016.1
20260505164228 74 194 3.0 10.0 0.00 0.00 0.00 52 1016.2
20260505163228 73 232 4.0 8.0 0.00 0.00 0.00 52 1016.3
20260505160228 72 277 4.0 8.0 0.00 0.00 0.00 55 1016.7
20260505153228 71 169 4.0 6.0 0.00 0.00 0.00 59 1016.8
20260505150227 69 213 3.0 5.0 0.00 0.00 0.00 63 1016.8
20260505140227 65 195 4.0 7.0 0.00 0.00 0.00 68 1016.2
20260505130227 61 133 4.0 4.0 0.00 0.00 0.00 76 1015.5
20260505123227 57 38 1.0 1.0 0.00 0.00 0.00 82 1015.2
20260505122227 56 26 1.0 2.0 0.00 0.00 0.00 83 1015.2
20260505121227 56 309 0.0 0.0 0.00 0.00 0.00 83 1015.2
20260505120226 53 162 0.0 2.0 0.00 0.00 0.00 86 1015.0
20260505115226 53 163 0.0 2.0 0.00 0.00 0.00 87 1015.0
20260505114226 51 163 0.0 0.0 0.00 0.00 0.00 90 1014.9
20260505112226 49 163 0.0 0.0 0.00 0.00 0.00 93 1014.8
20260505110227 47 163 0.0 2.0 0.00 0.00 0.00 92 1014.7
20260505101225 47 122 0.0 0.0 0.00 0.00 0.00 91 1014.8
20260505100226 48 122 0.0 0.0 0.00 0.00 0.00 90 1014.9
20260505095226 48 122 0.0 0.0 0.00 0.00 0.00 90 1014.8
20260505094226 48 122 0.0 0.0 0.00 0.00 0.00 90 1014.8
20260505093226 49 122 0.0 0.0 0.00 0.00 0.00 90 1014.9
20260505092225 49 122 0.0 0.0 0.00 0.00 0.00 90 1015.0
20260505091226 49 122 0.0 0.0 0.00 0.00 0.00 90 1015.1
20260505090225 49 122 1.0 2.0 0.00 0.00 0.00 88 1015.2
20260505085229 50 133 0.0 2.0 0.00 0.00 0.00 86 1015.4
20260505084225 51 133 0.0 1.0 0.00 0.00 0.00 84 1015.3
20260505083225 50 130 0.0 1.0 0.00 0.00 0.00 87 1015.2
20260505082225 50 134 2.0 2.0 0.00 0.00 0.00 89 1015.1
20260505081225 50 181 0.0 2.0 0.00 0.00 0.00 88 1015.1
20260505075225 50 207 0.0 1.0 0.00 0.00 0.00 88 1014.9
20260505074225 50 207 0.0 0.0 0.00 0.00 0.00 89 1014.8
20260505073225 50 207 0.0 0.0 0.00 0.00 0.00 88 1014.8
20260505072224 50 207 0.0 0.0 0.00 0.00 0.00 88 1014.8
20260505071225 50 207 0.0 0.0 0.00 0.00 0.00 87 1014.8
20260505070225 51 207 0.0 0.0 0.00 0.00 0.00 85 1014.9
20260505065224 51 207 0.0 0.0 0.00 0.00 0.00 84 1014.8
20260505064225 51 207 0.0 0.0 0.00 0.00 0.00 84 1014.7
20260505063225 51 207 0.0 0.0 0.00 0.00 0.00 84 1014.8
20260505062224 51 207 0.0 0.0 0.00 0.00 0.00 84 1014.8
20260505061224 52 207 0.0 0.0 0.00 0.00 0.00 83 1014.9
20260505060224 52 207 0.0 0.0 0.00 0.00 0.00 82 1014.8
20260505055224 52 207 0.0 0.0 0.00 0.00 0.00 82 1015.0
20260505054225 52 207 0.0 0.0 0.00 0.00 0.00 83 1015.0
20260505053224 52 207 0.0 0.0 0.00 0.00 0.00 81 1015.1